Precipitable_Water
0.66 0.69 0.72 0.74 0.70 0.63 0.55 0.45 0.29 0.63 0.68 0.41 0.37 0.25 0.30 0.38 0.43 0.48 0.44 0.44 0.41 0.38 0.40 0.37 0.34 0.33 0.38 0.46 0.44 0.38 0.40 0.35 0.29 0.32 0.41 0.42 0.34 0.28 0.26 0.20 0.18 0.19 0.16 0.16
0.65 0.69 0.71 0.74 0.72 0.64 0.46 0.35 0.37 0.61 0.61 0.30 0.31 0.31 0.29 0.34 0.37 0.43 0.43 0.40 0.42 0.44 0.40 0.35 0.39 0.40 0.50 0.49 0.43 0.37 0.38 0.33 0.26 0.28 0.33 0.38 0.31 0.30 0.29 0.27 0.25 0.19 0.17 0.16
0.63 0.69 0.70 0.71 0.72 0.66 0.50 0.35 0.26 0.39 0.47 0.46 0.35 0.32 0.24 0.24 0.36 0.39 0.43 0.42 0.43 0.40 0.38 0.43 0.38 0.38 0.47 0.52 0.48 0.50 0.44 0.30 0.29 0.24 0.28 0.33 0.29 0.29 0.30 0.28 0.22 0.20 0.20 0.19
0.64 0.70 0.70 0.69 0.71 0.66 0.51 0.36 0.28 0.31 0.23 0.32 0.37 0.39 0.30 0.22 0.22 0.34 0.40 0.37 0.38 0.37 0.34 0.36 0.35 0.40 0.43 0.48 0.51 0.50 0.46 0.30 0.30 0.32 0.34 0.34 0.32 0.29 0.30 0.27 0.27 0.22 0.22 0.21
0.69 0.70 0.71 0.69 0.68 0.67 0.48 0.28 0.28 0.31 0.26 0.30 0.35 0.36 0.34 0.24 0.23 0.24 0.26 0.30 0.35 0.37 0.34 0.36 0.33 0.40 0.41 0.38 0.45 0.43 0.44 0.34 0.33 0.27 0.31 0.32 0.28 0.30 0.28 0.29 0.28 0.27 0.26 0.24
0.73 0.70 0.71 0.69 0.67 0.63 0.44 0.40 0.41 0.31 0.25 0.25 0.30 0.32 0.35 0.34 0.28 0.26 0.26 0.26 0.29 0.33 0.38 0.44 0.43 0.44 0.45 0.46 0.42 0.40 0.38 0.36 0.31 0.24 0.28 0.28 0.24 0.25 0.25 0.26 0.28 0.26 0.23 0.26
0.76 0.73 0.70 0.68 0.67 0.62 0.48 0.41 0.39 0.28 0.19 0.23 0.24 0.32 0.37 0.36 0.38 0.28 0.29 0.27 0.23 0.32 0.42 0.44 0.42 0.41 0.39 0.42 0.43 0.43 0.36 0.34 0.31 0.24 0.23 0.17 0.24 0.28 0.27 0.26 0.27 0.28 0.27 0.28
0.74 0.76 0.68 0.67 0.66 0.64 0.50 0.48 0.40 0.31 0.20 0.22 0.23 0.27 0.35 0.40 0.41 0.40 0.37 0.35 0.35 0.35 0.31 0.25 0.24 0.27 0.29 0.31 0.36 0.36 0.38 0.31 0.26 0.21 0.19 0.21 0.21 0.23 0.24 0.23 0.22 0.27 0.27 0.29
0.79 0.78 0.70 0.65 0.65 0.64 0.54 0.48 0.49 0.37 0.25 0.20 0.25 0.24 0.30 0.33 0.36 0.38 0.41 0.49 0.48 0.39 0.25 0.16 0.11 0.12 0.17 0.17 0.25 0.36 0.36 0.35 0.27 0.23 0.19 0.16 0.17 0.23 0.26 0.25 0.16 0.21 0.24 0.24
0.82 0.79 0.76 0.65 0.64 0.65 0.57 0.48 0.52 0.41 0.28 0.29 0.27 0.23 0.24 0.32 0.34 0.34 0.42 0.44 0.44 0.45 0.27 0.17 0.14 0.12 0.15 0.12 0.13 0.17 0.26 0.27 0.24 0.23 0.20 0.19 0.19 0.20 0.24 0.13 0.14 0.21 0.23 0.24
0.83 0.78 0.77 0.70 0.65 0.66 0.59 0.49 0.53 0.42 0.33 0.32 0.32 0.31 0.27 0.29 0.33 0.28 0.40 0.40 0.42 0.39 0.32 0.25 0.20 0.17 0.16 0.15 0.15 0.15 0.16 0.19 0.21 0.21 0.18 0.15 0.20 0.19 0.14 0.17 0.21 0.22 0.25 0.24
0.89 0.81 0.78 0.76 0.68 0.69 0.64 0.47 0.56 0.53 0.38 0.34 0.43 0.40 0.39 0.38 0.39 0.34 0.37 0.35 0.39 0.41 0.33 0.32 0.32 0.28 0.25 0.22 0.15 0.21 0.12 0.15 0.12 0.15 0.14 0.16 0.22 0.23 0.24 0.25 0.23 0.25 0.26 0.29
0.97 0.89 0.84 0.77 0.74 0.70 0.67 0.56 0.57 0.51 0.40 0.36 0.37 0.34 0.42 0.45 0.43 0.46 0.33 0.38 0.42 0.45 0.46 0.38 0.35 0.32 0.35 0.28 0.27 0.26 0.26 0.24 0.16 0.14 0.16 0.17 0.19 0.23 0.28 0.30 0.30 0.31 0.32 0.32
0.99 0.97 0.90 0.82 0.77 0.73 0.68 0.59 0.61 0.54 0.46 0.31 0.32 0.48 0.40 0.48 0.46 0.45 0.46 0.42 0.47 0.50 0.47 0.40 0.38 0.34 0.37 0.33 0.35 0.34 0.37 0.37 0.32 0.27 0.27 0.28 0.30 0.32 0.32 0.33 0.35 0.35 0.36 0.36
0.97 0.97 0.94 0.88 0.85 0.79 0.70 0.71 0.67 0.64 0.51 0.39 0.35 0.44 0.46 0.50 0.50 0.46 0.45 0.42 0.43 0.42 0.40 0.37 0.33 0.37 0.37 0.38 0.35 0.31 0.35 0.34 0.33 0.32 0.36 0.34 0.35 0.38 0.40 0.39 0.39 0.40 0.39 0.39
0.97 0.97 0.95 0.93 0.92 0.87 0.70 0.52 0.68 0.75 0.71 0.51 0.33 0.43 0.42 0.49 0.53 0.49 0.50 0.48 0.44 0.43 0.41 0.38 0.37 0.40 0.37 0.31 0.29 0.35 0.37 0.37 0.36 0.33 0.37 0.37 0.37 0.39 0.39 0.38 0.40 0.41 0.41 0.42
0.93 0.97 0.95 0.95 0.96 0.91 0.71 0.56 0.63 0.77 0.72 0.51 0.36 0.33 0.43 0.50 0.52 0.53 0.52 0.55 0.48 0.43 0.38 0.35 0.36 0.39 0.43 0.36 0.28 0.30 0.37 0.41 0.41 0.40 0.39 0.38 0.41 0.41 0.45 0.45 0.46 0.48 0.48 0.47
0.88 0.94 0.94 0.94 0.94 0.90 0.79 0.83 0.83 0.80 0.65 0.56 0.36 0.34 0.39 0.52 0.46 0.48 0.58 0.49 0.46 0.43 0.39 0.40 0.37 0.42 0.45 0.37 0.39 0.40 0.40 0.40 0.41 0.43 0.45 0.46 0.47 0.48 0.48 0.50 0.49 0.47 0.46 0.46
0.85 0.90 0.93 0.86 0.80 0.71 0.77 0.90 0.84 0.77 0.63 0.47 0.43 0.38 0.37 0.58 0.55 0.56 0.55 0.55 0.42 0.50 0.43 0.43 0.46 0.43 0.39 0.40 0.41 0.45 0.47 0.45 0.45 0.47 0.48 0.49 0.47 0.47 0.48 0.48 0.47 0.45 0.44 0.44
0.82 0.83 0.71 0.58 0.71 0.88 0.86 0.75 0.64 0.64 0.64 0.60 0.51 0.55 0.46 0.54 0.52 0.50 0.50 0.50 0.43 0.38 0.43 0.50 0.43 0.40 0.44 0.45 0.46 0.47 0.48 0.48 0.48 0.43 0.42 0.44 0.44 0.45 0.45 0.45 0.45 0.44 0.43 0.41
0.67 0.60 0.58 0.72 0.84 0.74 0.64 0.52 0.51 0.53 0.47 0.54 0.55 0.54 0.49 0.58 0.45 0.45 0.49 0.44 0.43 0.35 0.39 0.39 0.37 0.35 0.39 0.43 0.41 0.43 0.45 0.45 0.44 0.44 0.44 0.43 0.43 0.42 0.42 0.42 0.42 0.41 0.39 0.37
0.63 0.64 0.70 0.70 0.61 0.55 0.47 0.44 0.48 0.45 0.42 0.51 0.50 0.52 0.55 0.55 0.57 0.48 0.48 0.41 0.41 0.32 0.43 0.36 0.31 0.35 0.39 0.38 0.38 0.39 0.41 0.41 0.41 0.41 0.41 0.41 0.41 0.42 0.41 0.40 0.39 0.38 0.36 0.34
0.61 0.56 0.51 0.50 0.48 0.39 0.37 0.33 0.37 0.38 0.46 0.49 0.51 0.48 0.53 0.55 0.54 0.48 0.45 0.39 0.35 0.43 0.34 0.30 0.33 0.37 0.37 0.36 0.36 0.37 0.40 0.41 0.40 0.39 0.41 0.41 0.41 0.41 0.39 0.37 0.37 0.35 0.32 0.31
0.39 0.40 0.35 0.38 0.35 0.38 0.40 0.40 0.41 0.47 0.49 0.50 0.51 0.49 0.48 0.51 0.46 0.45 0.38 0.40 0.40 0.32 0.28 0.28 0.35 0.35 0.34 0.36 0.36 0.35 0.35 0.37 0.37 0.38 0.38 0.38 0.38 0.37 0.36 0.35 0.33 0.31 0.30 0.31
0.34 0.36 0.30 0.35 0.42 0.44 0.46 0.48 0.49 0.50 0.53 0.51 0.48 0.48 0.48 0.45 0.42 0.43 0.40 0.35 0.31 0.31 0.29 0.33 0.35 0.34 0.34 0.35 0.35 0.36 0.36 0.37 0.37 0.37 0.37 0.36 0.35 0.33 0.31 0.31 0.30 0.30 0.29 0.29
0.34 0.33 0.31 0.38 0.39 0.40 0.43 0.45 0.46 0.53 0.52 0.52 0.50 0.45 0.42 0.40 0.41 0.37 0.34 0.31 0.28 0.31 0.34 0.36 0.37 0.36 0.36 0.36 0.37 0.38 0.39 0.39 0.38 0.38 0.37 0.35 0.33 0.31 0.30 0.30 0.30 0.29 0.27 0.20
0.25 0.26 0.34 0.35 0.38 0.39 0.43 0.46 0.46 0.53 0.47 0.41 0.43 0.37 0.37 0.43 0.36 0.33 0.36 0.32 0.34 0.38 0.39 0.40 0.40 0.38 0.38 0.39 0.40 0.40 0.41 0.41 0.40 0.39 0.37 0.34 0.33 0.32 0.31 0.30 0.30 0.27 0.21 0.20
Wind_Speed
21 19 16 15 13 12 11 10 10 10 9 10 10 10 10 10 9 8 7 5 4 4 4 2 2 3 4 3 1 3 5 6 8 8 9 12 16 16 16 14 16 16 15 15
24 21 18 15 14 12 10 9 9 8 8 9 9 9 9 9 8 7 6 5 3 4 5 4 1 2 3 4 4 3 4 5 8 9 11 13 15 17 16 15 13 14 13 12
25 22 20 17 15 13 10 9 8 7 7 9 9 8 8 8 7 7 6 6 3 3 5 4 3 1 2 5 4 3 4 5 9 12 11 13 16 18 18 15 14 14 13 11
26 24 21 18 16 13 11 9 8 7 7 7 7 7 7 6 6 6 6 5 4 3 4 5 3 1 0 3 3 2 4 4 5 8 11 13 13 17 20 19 16 15 13 12
28 25 22 19 16 14 12 10 8 7 7 6 5 5 5 4 5 5 5 4 5 4 3 3 4 2 1 2 3 2 4 4 5 7 10 12 14 17 19 20 17 16 15 14
30 26 23 20 18 16 14 11 9 8 6 5 5 5 5 4 4 4 5 5 4 3 3 4 4 3 3 1 1 3 3 5 5 6 8 11 15 20 21 19 19 18 18 15
30 28 24 22 19 18 15 13 10 8 7 6 5 5 4 4 3 4 4 4 4 4 4 4 4 5 4 4 3 0 3 4 5 5 7 11 10 13 15 20 17 21 16 15
30 28 26 23 21 19 17 14 12 9 8 7 6 5 4 3 4 3 3 3 4 2 4 3 3 3 2 2 2 2 2 4 5 5 7 6 11 14 15 16 14 17 21 21
32 29 27 24 22 20 18 16 14 11 9 8 6 4 4 4 3 3 3 3 2 2 3 3 3 3 3 3 2 1 3 4 4 5 5 5 7 10 13 13 13 14 14 15
32 30 28 26 23 21 19 17 16 13 11 9 8 6 5 3 3 3 3 2 2 2 2 2 2 3 3 3 2 3 3 4 5 5 4 4 7 9 11 12 10 10 11 13
32 31 29 27 25 22 20 18 18 15 13 11 10 9 7 5 5 4 2 2 2 1 1 2 2 2 2 2 2 2 3 5 4 5 5 3 8 9 9 8 8 7 8 9
33 32 30 29 26 24 22 20 19 17 15 12 11 11 10 8 7 5 5 4 3 2 1 2 1 1 1 1 2 1 2 3 3 5 4 4 8 6 8 7 7 7 7 8
35 34 32 29 28 26 23 21 20 18 16 15 15 14 13 12 10 9 7 6 5 4 3 2 2 3 1 1 1 0 2 3 2 1 4 6 8 8 8 7 7 7 7 9
34 34 35 32 30 27 26 23 22 19 16 16 14 14 12 12 12 11 10 8 6 5 5 4 4 4 3 4 3 4 2 4 4 5 6 6 7 8 7 9 9 8 8 9
31 31 34 34 32 30 27 25 24 22 20 16 14 16 15 14 13 13 12 11 9 8 7 6 6 5 5 5 5 6 6 7 7 5 4 3 3 4 5 7 8 9 9 9
34 30 31 33 32 30 26 25 27 26 22 20 19 17 15 14 13 12 12 12 11 11 10 9 9 8 7 6 6 6 6 6 6 5 5 5 5 5 6 7 8 8 9 9
26 32 29 29 31 31 28 25 24 26 24 20 20 19 19 17 15 15 15 15 14 14 13 13 12 10 10 10 11 9 9 10 9 9 8 8 9 8 8 8 8 9 9 10
23 29 29 27 27 26 27 27 24 25 24 23 21 19 18 18 17 16 16 16 16 15 14 13 13 12 12 13 15 11 11 11 12 12 12 10 10 9 9 9 9 10 10 11
23 27 31 25 26 25 24 23 24 22 23 21 21 20 18 18 16 15 14 14 13 13 14 13 13 12 13 13 12 12 12 11 11 11 12 12 12 12 12 12 12 12 13 13
23 26 29 27 26 24 22 21 22 25 26 25 24 20 18 16 15 14 13 13 13 12 12 11 13 14 18 18 16 14 13 13 12 11 12 13 13 14 13 14 14 14 15 15
23 25 27 27 26 23 22 21 21 21 21 23 23 23 19 19 15 14 14 13 12 13 12 13 11 12 11 10 11 12 14 14 14 13 13 14 14 14 15 15 15 15 15 15
24 23 25 28 26 23 23 22 21 21 22 20 20 22 21 19 18 16 16 15 15 15 12 13 12 12 12 12 11 10 10 11 12 13 13 13 14 14 15 15 15 15 15 16
25 21 24 25 25 24 25 25 23 23 20 19 20 19 20 19 20 17 16 16 17 15 16 16 15 14 13 12 12 11 11 12 12 13 14 14 13 13 14 14 15 15 16 17
26 25 23 24 23 26 25 25 24 23 22 21 20 18 17 18 18 18 16 17 17 17 18 18 15 15 15 14 14 13 13 14 14 14 14 14 14 14 15 15 16 17 17 19
25 26 24 24 22 22 24 25 23 24 23 23 21 20 20 18 17 18 17 17 19 19 18 16 15 14 15 15 15 15 15 15 15 15 15 15 15 15 16 17 17 18 19 20
24 26 26 25 25 24 23 22 23 25 26 24 23 21 21 22 20 20 21 20 20 18 17 16 16 16 16 17 17 17 17 17 17 17 17 17 17 17 17 18 19 20 21 22
24 25 27 24 24 25 25 22 23 23 25 24 23 24 24 21 22 24 23 22 20 19 18 19 19 20 20 20 20 21 21 20 20 20 19 19 19 19 20 20 21 22 23 24
Wind_Direction
253 261 271 283 293 300 302 310 318 327 335 340 348 352 360 7 7 13 10 15 16 15 12 342 263 218 204 174 157 168 182 190 188 191 190 186 185 185 184 189 187 195 205 195
248 255 262 272 281 288 291 301 315 319 328 337 343 349 353 1 9 10 18 12 15 23 15 3 338 218 228 221 212 205 186 194 177 193 195 191 189 187 186 184 189 192 197 188
243 248 255 262 270 276 274 288 305 314 316 329 336 345 348 357 6 5 11 11 9 2 7 12 359 315 230 200 195 216 221 207 215 205 196 187 189 191 191 193 192 185 194 189
239 243 249 254 261 261 258 272 293 306 314 319 326 341 348 353 3 8 15 21 14 19 13 11 13 10 97 183 210 226 211 202 201 202 197 194 195 194 195 196 197 199 188 194
234 238 242 246 250 243 251 261 277 290 304 317 319 330 338 338 359 7 17 10 27 27 24 20 26 61 77 188 199 198 200 192 196 196 195 200 204 203 202 204 203 209 208 217
231 234 236 238 239 237 245 249 264 278 289 301 310 322 333 339 355 2 5 11 23 35 29 18 20 39 34 14 220 207 213 195 197 197 198 203 210 206 202 202 205 206 207 214
227 228 230 232 233 233 239 242 251 262 273 276 290 313 315 320 330 350 6 14 12 25 57 44 43 46 52 53 48 48 178 181 192 191 194 203 197 196 204 209 210 211 218 215
222 224 226 228 229 230 235 237 241 251 266 268 279 279 306 325 332 337 349 0 6 31 12 6 7 9 14 27 33 64 145 169 165 184 191 213 199 200 197 199 206 212 224 227
220 221 222 224 226 227 231 232 235 243 258 259 267 267 276 299 302 322 328 350 358 1 9 11 10 18 25 48 62 116 121 147 166 160 182 185 179 191 197 202 210 207 221 228
217 218 220 221 223 224 228 230 231 237 247 254 250 258 268 278 296 316 326 321 323 333 350 349 359 21 33 37 54 104 140 146 178 171 178 207 183 178 181 193 192 212 220 228
215 217 218 220 221 222 226 229 229 234 242 250 249 251 256 262 271 283 298 318 313 307 295 341 7 6 48 32 49 98 143 154 160 159 174 198 162 165 184 181 192 207 214 219
216 216 218 219 220 222 224 228 228 232 239 247 249 250 250 258 265 269 260 299 304 281 296 293 348 334 12 1 26 92 123 152 135 178 170 145 168 158 176 187 193 208 217 215
217 218 219 219 220 221 224 227 226 232 241 246 248 248 249 251 254 257 259 267 275 270 287 288 295 278 270 288 267 234 217 189 187 163 168 211 212 211 210 210 223 230 231 222
216 219 219 219 219 221 223 226 227 231 238 244 246 247 245 246 244 250 256 260 263 255 258 277 282 286 266 281 284 261 257 187 208 232 246 238 241 231 229 231 236 232 233 231
215 218 217 218 219 222 225 229 229 231 237 242 245 245 243 246 247 246 251 249 248 249 252 263 273 278 276 280 277 262 232 229 223 237 221 234 223 222 237 234 235 236 237 237
215 217 218 218 218 220 225 232 231 231 237 242 241 242 239 239 240 244 251 247 245 246 252 262 269 269 268 271 266 267 239 240 236 237 236 245 242 250 253 249 245 240 240 242
217 215 216 217 218 220 225 231 233 228 231 238 239 238 238 239 243 251 251 249 248 251 255 259 261 262 260 263 261 266 259 247 242 243 244 255 256 260 255 252 248 247 251 253
220 214 214 214 214 220 226 229 230 228 231 232 233 234 235 236 248 252 249 245 245 250 252 256 257 260 260 264 263 265 262 256 249 246 252 261 264 261 262 260 255 255 258 261
222 215 207 212 217 221 221 220 222 224 224 228 230 232 239 238 241 240 240 241 243 248 249 252 254 256 253 254 263 261 256 255 255 249 251 254 258 257 259 261 262 261 264 266
219 208 210 217 219 212 212 226 226 229 230 233 234 230 229 228 229 231 233 240 241 245 247 251 254 261 264 264 263 263 260 253 249 254 256 258 261 260 261 263 266 267 266 268
215 214 215 214 207 214 217 220 220 222 227 228 229 225 222 223 226 227 232 237 242 249 248 250 260 267 265 265 268 265 256 250 250 259 264 260 264 259 262 264 266 266 266 269
213 213 211 208 214 219 218 219 221 225 226 225 222 221 222 223 228 232 237 242 245 250 243 253 260 259 264 266 270 270 261 251 250 260 265 264 267 262 263 264 264 265 268 271
211 211 209 212 215 218 219 217 222 224 224 224 222 221 222 225 230 235 238 240 245 246 250 255 258 266 262 260 262 267 266 262 260 265 268 268 267 265 265 266 267 268 270 274
212 213 215 214 217 221 223 223 224 227 228 224 221 219 225 227 227 233 237 243 244 249 256 259 264 262 256 255 260 262 263 262 263 265 266 267 268 268 268 269 269 270 273 278
212 213 217 218 218 221 222 225 227 227 227 222 224 227 229 228 230 235 236 240 248 253 259 260 259 257 258 255 259 262 263 264 265 267 268 270 270 270 271 271 272 275 278 282
214 217 220 222 222 224 225 227 229 228 226 225 230 231 232 233 233 235 239 240 250 258 254 255 258 260 262 263 263 264 265 265 266 268 269 270 270 269 271 274 276 278 281 283
217 219 222 224 225 227 227 226 230 229 225 229 232 233 233 235 238 241 242 247 252 252 253 256 260 265 267 266 266 267 268 267 267 268 269 269 269 272 275 275 277 280 282 285